{"data":{"norad_id":59421,"intl_designator":"2024-065A","name":"STARLINK-11087 [DTC]","alt_names":[],"object_type":"PAYLOAD","status":"ACTIVE","operator":null,"country":"US","launch_date":"2024-04-07","launch_site_code":"AFWTR","launch_vehicle":null,"mission":null,"orbit_class":"UNKNOWN","rcs_meters":null,"size_class":null,"mass_kg":null,"dimensions":null,"purposes":["comms"],"wikipedia_slug":null,"has_3d_model":false,"image_url":null,"decayed_at":null,"tle_current":{"epoch":"2026-05-25T02:35:46.324320Z","epoch_age_seconds":59687,"freshness":"FRESH","line1":"1 59421U 24065A   26145.10817505  .00004982  00000+0  45960-4 0  9993","line2":"2 59421  53.1577  77.3032 0001087  69.0016 291.1118 15.69704984123519","mean_motion":15.69704984,"eccentricity":0.0001087,"inclination_deg":53.1577,"raan_deg":77.3032,"arg_perigee_deg":69.0016,"mean_anomaly_deg":291.1118,"bstar":4.596e-5,"rev_number":12351,"period_min":91.736983361709,"perigee_km":359.00869698004,"apogee_km":360.47351167992,"semimajor_km":6737.87810433,"source":"CELESTRAK","updated_at":"2026-05-25T13:38:18.943743Z"}}}